Location: Limerick
(52.6650°N, 8.6230°W)
Time: 00:31:52
(UTC+01:00)

ISS - Visible Passes

Search period start: 26 August 2019 00:00
Search period end: 05 September 2019 00:00
Orbit: 410 x 421 km, 51.6° (Epoch: 26 August)

Date Brightness Start Highest point End Pass type
(mag) Time Alt. Az. Time Alt. Az. Time Alt. Az.
29 Aug -0.9 05:24:43 10° SE 05:25:03 10° SE 05:25:24 10° SE visible
31 Aug -1.8 05:21:28 12° S 05:23:40 20° SE 05:26:12 10° E visible
01 Sep -1.4 04:34:38 14° SSE 04:35:02 14° SE 04:36:52 10° ESE visible
02 Sep -2.7 05:20:37 20° SSW 05:22:24 34° SSE 05:25:29 10° E visible
03 Sep -2.3 04:33:40 26° SSE 04:33:40 26° SSE 04:36:29 10° E visible
03 Sep -3.6 06:06:43 10° WSW 06:10:02 66° S 06:13:23 10° E visible
04 Sep -1.1 03:46:43 13° ESE 03:46:43 13° ESE 03:47:21 10° E visible
04 Sep -3.5 05:19:35 26° SW 05:21:12 55° SSE 05:24:29 10° E visible
